Regional Weather Roundup
Issued by NWS

Home | Current Version | Previous Version | Graphics & Text | Print | Product List | Glossary On
Versions: 1 2 3 4 5 6 7 8 9 10 11 12 13 14 15 16 17 18 19 20 21 22 23 24 25 26 27 28 29 30 31 32 33 34 35 36 37 38 39 40 41 42 43 44 45 46 47 48 49 50
000
ASUS45 KCYS 260710
RWRWY

WYOMING REGIONAL WEATHER ROUNDUP
NATIONAL WEATHER SERVICE CHEYENNE WY
1200 AM MST SUN FEB 26 2017

NOTE:  "FAIR" INDICATES FEW OR NO CLOUDS BELOW 12,000 FEET
WITH NO SIGNIFICANT WEATHER AND/OR OBSTRUCTIONS TO VISIBILITY.

WYZ001-260800-
YELLOWSTONE NATIONAL PARK

CITY           SKY/WX    TMP DP  RH WIND       PRES   REMARKS
LK YELLOWSTONE   N/A      2  -1  88 CALM      29.75S
W YELLOWSTONE  NOT AVBL

$$
WYZ002>013-054>058-071-098>099-260800-
NORTHERN WYOMING

CITY           SKY/WX    TMP DP  RH WIND       PRES   REMARKS
JACKSON        CLOUDY    12  10  92 SW7       29.83S WCI   2
CODY           FAIR      22   2  42 SW25G33   29.69S WCI   5
GREYBULL       FAIR      23  12  62 E8        29.74S WCI  14
WORLAND        FAIR      15   9  76 SE7       29.74S WCI   5
SHERIDAN       FAIR      15   6  67 SE14      29.69F WCI   0
BUFFALO        FAIR      12  -1  56 W3        29.67S
GILLETTE       CLOUDY    21  16  81 SW9       29.70R WCI  11
HULETT         CLOUDY    21  16  79 SW9       29.68F WCI  11
NEWCASTLE      FAIR      14  12  92 CALM      29.73S

$$
WYZ014>020-022>026-101>103-260800-
CENTRAL WYOMING

CITY           SKY/WX    TMP DP  RH WIND       PRES   REMARKS
BIG PINEY      FAIR      -9 -12  87 E3        29.83S
PINEDALE       FAIR       0  -6  78 W14       29.82F WCI -19
DUBOIS         FAIR       9  -4  56 NW12G24   29.71F WCI  -6
LANDER         FAIR       8  -6  52 CALM      29.74S
RIVERTON       FAIR      12  -1  56 W22       29.74R WCI  -7
CASPER         FAIR      12   0  58 SW17      29.74R WCI  -5
DOUGLAS        FAIR       9   0  67 N7        29.74S WCI  -2

$$
WYZ021-027>030-104>119-260800-
SOUTHERN WYOMING

CITY           SKY/WX    TMP DP  RH WIND       PRES   REMARKS
EVANSTON       FAIR       2  -3  80 SW12      29.86S WCI -15
KEMMERER         N/A      1  -4  78 SW7       29.83S WCI -11
FORT BRIDGER   FAIR       8   4  84 SW14      29.88S WCI  -8
ROCK SPRINGS   FAIR       8   1  73 W17       29.84S WCI -10
DIXON            N/A      0  -4  82 CALM      29.91S
RAWLINS        FAIR      10   3  73 W25G32    29.76F WCI -11
SARATOGA       FLURRIES  12   7  79 W14       29.82R WCI  -3
LARAMIE        FAIR      11   0  61 W18       29.71R WCI  -7
CHEYENNE       FAIR      13   1  59 W10       29.75S WCI   0
TORRINGTON     FAIR      19   7  59 W14       29.78R WCI   6
PINE BLUFFS    FAIR       7   0  72 W9        29.80S WCI  -7

$$



USA.gov is the U.S. government's official web portal to all federal, state and local government web resources and services.